User: anonymous   Login
Location: Unspecified
(0.0000°N, 0.0000°E)
Time: 07:05:03
(UTC+00:00)
Language:

ORS OBJECT Z - Orbit

View from above orbital plane
View from above orbital plane
View from above satellite
View from above satellite

Ground track
Ground track

The orbit data is extracted from the following two-line orbital elements,

1 39403U 13064Z   19081.39562594  .00006841  00000-0  94691-4 0  9997
2 39403  40.5220  78.5074 0000606 277.1978  82.8775 15.57344997298839
Epoch (UTC): 22 March 2019 09:29:42
Eccentricity: 0.0000606
inclination: 40.5220°
perigee height: 395 km
apogee height: 396 km
right ascension of ascending node: 78.5074°
argument of perigee: 277.1978°
revolutions per day: 15.57344997
mean anomaly at epoch: 82.8775°
orbit number at epoch: 29883

The dashed part of the orbit path shows where the satellite is in the earth's shadow,  

DLR